Weather History for Kansas City International, MO

Change the Weather History Date:

Tuesday, June 25, 2013

  Actual Average Record
Temperature  
Mean Temperature 81 °F 76 °F  
Max Temperature 89 °F 86 °F 102 °F (1988)
Min Temperature 73 °F 66 °F 53 °F (2004)
Degree Days  
Heating Degree Days 0 0  
Month to date heating degree days 17 7  
Since 1 June heating degree days 17 7  
Since 1 July heating degree days 5202 5131  
Cooling Degree Days 16 11  
Month to date cooling degree days 220 208  
Year to date cooling degree days 325 324  
Since 1 June cooling degree days 220 208  
Growing Degree Days 31 (Base 50)    
Moisture  
Dew Point 69 °F    
Average Humidity 71    
Maximum Humidity 87    
Minimum Humidity 55    
Precipitation  
Precipitation 0.03 in 0.16 in 2.54 in (1894)
Month to date precipitation 1.89 4.40  
Year to date precipitation 16.82 18.23  
Snow  
Snow 0.00 in 0.00 in 0.00 in ()
Month to date snowfall 0.0 0.0  
Since 1 June snowfall 0.0 0.0  
Since 1 July snowfall 31.8 18.8  
Snow Depth 0.00 in    
Sea Level Pressure  
Sea Level Pressure 29.77 in    
Wind  
Wind Speed 15 mph (SSW)    
Max Wind Speed 30 mph    
Max Gust Speed 39 mph    
Visibility 10 miles    
Events Rain    
T = Trace of Precipitation, MM = Missing Value Source: NWS Daily Summary

Daily Weather History Graph

Daily Weather History Graph

Search for Another Location

Airport:

Trip Planner

Search our weather history database for the weather conditions in past years. The results will help you decide how hot, cold, wet, or windy it might be!

Date:

Astronomy

Jun. 25, 2013 Rise Set
Actual Time 5:53 AM CDT 8:49 PM CDT
Civil Twilight 5:21 AM CDT 9:21 PM CDT
Nautical Twilight 4:40 AM CDT 10:02 PM CDT
Astronomical Twilight 3:53 AM CDT 10:49 PM CDT
Moon 10:36 PM CDT (6/25) 8:33 AM CDT (6/25)
Length of Visible Light 16h 00m
Length of Day
14h 55m
Waning Gibbous, 92% of the Moon is Illuminated
Jun 25
Waning Gibbous
Jun 29
Last Quarter
Jul 8
New
Jul 15
First Quarter
Jul 22
Full

Hourly Weather History & Observations

Time (CDT) Temp. Heat Index Dew Point Humidity Pressure Visibility Wind Dir Wind Speed Gust Speed Precip Events Conditions
12:53 AM 81.0 °F 83.0 °F 66.0 °F 60% 29.82 in 10.0 mi SSW 23.0 mph 33.4 mph N/A   Overcast
1:53 AM 80.1 °F 82.1 °F 66.0 °F 62% 29.81 in 10.0 mi SSW 23.0 mph 36.8 mph N/A   Overcast
2:53 AM 80.1 °F 82.1 °F 66.0 °F 62% 29.78 in 10.0 mi SSW 17.3 mph 35.7 mph N/A   Overcast
3:53 AM 79.0 °F - 66.0 °F 64% 29.76 in 10.0 mi SSW 10.4 mph - N/A   Overcast
4:53 AM 80.1 °F 82.1 °F 66.0 °F 62% 29.79 in 10.0 mi SSW 16.1 mph 23.0 mph N/A   Overcast
5:53 AM 78.1 °F - 66.0 °F 66% 29.80 in 10.0 mi SSW 16.1 mph 24.2 mph N/A   Overcast
6:53 AM 78.1 °F - 66.0 °F 66% 29.82 in 10.0 mi SW 13.8 mph - N/A   Overcast
7:53 AM 77.0 °F - 66.9 °F 71% 29.83 in 10.0 mi SW 5.8 mph - N/A   Overcast
8:53 AM 75.0 °F - 69.1 °F 82% 29.85 in 10.0 mi SSW 5.8 mph - 0.00 in Rain Light Rain
9:53 AM 73.9 °F - 70.0 °F 87% 29.86 in 8.0 mi Calm Calm - 0.02 in Rain Light Rain
10:53 AM 75.0 °F - 71.1 °F 87% 29.83 in 10.0 mi South 8.1 mph - 0.01 in   Overcast
11:53 AM 80.1 °F 83.8 °F 72.0 °F 76% 29.84 in 10.0 mi SSE 6.9 mph - N/A   Mostly Cloudy
12:53 PM 82.9 °F 88.0 °F 72.0 °F 69% 29.78 in 10.0 mi South 20.7 mph - N/A   Mostly Cloudy
1:53 PM 84.0 °F 89.0 °F 71.1 °F 65% 29.76 in 10.0 mi South 20.7 mph 25.3 mph N/A   Scattered Clouds
2:53 PM 87.1 °F 93.6 °F 72.0 °F 61% 29.73 in 10.0 mi South 19.6 mph 28.8 mph N/A   Mostly Cloudy
3:53 PM 88.0 °F 92.9 °F 70.0 °F 55% 29.72 in 10.0 mi South 17.3 mph 29.9 mph N/A   Mostly Cloudy
4:53 PM 88.0 °F 92.9 °F 70.0 °F 55% 29.70 in 10.0 mi South 16.1 mph - N/A   Mostly Cloudy
5:53 PM 87.1 °F 92.8 °F 71.1 °F 59% 29.71 in 10.0 mi South 15.0 mph - N/A   Mostly Cloudy
6:53 PM 84.0 °F 87.8 °F 69.1 °F 61% 29.70 in 10.0 mi SSW 16.1 mph 26.5 mph N/A   Mostly Cloudy
7:53 PM 82.9 °F 87.0 °F 70.0 °F 65% 29.71 in 10.0 mi South 16.1 mph - N/A   Scattered Clouds
8:53 PM 82.0 °F 85.5 °F 69.1 °F 65% 29.71 in 10.0 mi South 13.8 mph - N/A   Partly Cloudy
9:53 PM 81.0 °F 83.8 °F 68.0 °F 65% 29.72 in 10.0 mi South 13.8 mph 23.0 mph N/A   Clear
10:53 PM 81.0 °F 83.8 °F 68.0 °F 65% 29.72 in 10.0 mi South 18.4 mph 25.3 mph N/A   Clear
11:53 PM 80.1 °F 82.9 °F 69.1 °F 69% 29.71 in 10.0 mi South 21.9 mph 28.8 mph N/A   Scattered Clouds